Time,TemperatureF,DewpointF,PressureIn,WindDirection,WindDirectionDegrees,WindSpeedMPH,WindSpeedGustMPH,Humidity,HourlyPrecipIn,Conditions,Clouds,dailyrainin,SoftwareType,DateUTC
2013-05-09 00:01:00,64.8,58.8,30.11,West,274,0.0,0.0,81,0.00,CLR,OVC,0.00,WeatherDisplay:10.37,2013-05-09 04:01:00,
2013-05-09 00:02:00,64.8,58.8,30.11,West,274,0.0,0.0,81,0.00,CLR,OVC,0.00,WeatherDisplay:10.37,2013-05-09 04:02:00,
2013-05-09 00:07:00,67.1,58.9,30.11,West,274,2.0,0.0,75,0.00,CLR,OVC,0.00,WeatherDisplay:10.37,2013-05-09 04:07:00,
2013-05-09 00:12:00,64.7,59.1,30.11,West,274,0.0,0.0,82,0.00,CLR,OVC,0.00,WeatherDisplay:10.37,2013-05-09 04:12:00,
2013-05-09 00:17:00,64.7,59.1,30.11,West,274,0.0,0.0,82,0.00,CLR,OVC,0.00,WeatherDisplay:10.37,2013-05-09 04:17:00,
2013-05-09 00:22:00,67.1,58.9,30.11,West,274,2.0,0.0,75,0.00,CLR,OVC,0.00,WeatherDisplay:10.37,2013-05-09 04:22:00,
2013-05-09 00:27:00,64.3,59.7,30.11,West,274,0.0,0.0,85,0.00,CLR,OVC,0.00,WeatherDisplay:10.37,2013-05-09 04:27:00,
2013-05-09 00:32:00,64.3,59.7,30.11,West,274,0.0,0.0,85,0.00,CLR,OVC,0.00,WeatherDisplay:10.37,2013-05-09 04:32:00,
2013-05-09 00:37:00,64.3,59.7,30.11,West,274,0.0,0.0,85,0.00,CLR,OVC,0.00,WeatherDisplay:10.37,2013-05-09 04:37:00,
2013-05-09 00:42:00,64.3,59.7,30.11,West,274,0.0,0.0,85,0.00,CLR,OVC,0.00,WeatherDisplay:10.37,2013-05-09 04:42:00,
2013-05-09 00:47:00,64.3,59.7,30.11,West,274,0.0,0.0,85,0.00,CLR,OVC,0.00,WeatherDisplay:10.37,2013-05-09 04:47:00,
2013-05-09 00:52:00,64.3,59.7,30.11,West,274,0.0,0.0,85,0.00,CLR,OVC,0.00,WeatherDisplay:10.37,2013-05-09 04:52:00,
2013-05-09 00:57:00,64.3,59.7,30.11,West,274,0.0,0.0,85,0.00,CLR,OVC,0.00,WeatherDisplay:10.37,2013-05-09 04:57:00,
2013-05-09 01:02:00,64.3,59.7,30.11,West,274,0.0,0.0,85,0.00,CLR,OVC,0.00,WeatherDisplay:10.37,2013-05-09 05:02:00,
2013-05-09 01:07:00,62.6,58.0,30.11,West,274,0.0,0.0,85,0.00,CLR,OVC,0.00,WeatherDisplay:10.37,2013-05-09 05:07:00,
2013-05-09 01:12:00,64.3,59.7,30.11,West,274,0.0,0.0,85,0.00,CLR,OVC,0.00,WeatherDisplay:10.37,2013-05-09 05:12:00,
2013-05-09 01:17:00,62.4,58.2,30.11,West,274,0.0,0.0,86,0.00,CLR,OVC,0.00,WeatherDisplay:10.37,2013-05-09 05:17:00,
2013-05-09 01:22:00,62.3,58.1,30.10,West,274,0.0,0.0,86,0.00,CLR,OVC,0.00,WeatherDisplay:10.37,2013-05-09 05:22:00,
2013-05-09 01:27:00,62.1,58.2,30.10,West,274,0.0,0.0,87,0.00,CLR,OVC,0.00,WeatherDisplay:10.37,2013-05-09 05:27:00,
2013-05-09 01:32:00,62.1,58.2,30.10,West,274,0.0,0.0,87,0.00,CLR,OVC,0.00,WeatherDisplay:10.37,2013-05-09 05:32:00,
2013-05-09 01:37:00,62.1,58.2,30.10,West,274,0.0,0.0,87,0.00,CLR,OVC,0.00,WeatherDisplay:10.37,2013-05-09 05:37:00,
2013-05-09 01:42:00,62.1,58.2,30.10,West,274,0.0,0.0,87,0.00,CLR,OVC,0.00,WeatherDisplay:10.37,2013-05-09 05:42:00,
2013-05-09 01:47:00,61.6,57.7,30.10,West,274,0.0,0.0,87,0.00,CLR,OVC,0.00,WeatherDisplay:10.37,2013-05-09 05:47:00,
2013-05-09 01:52:00,61.6,57.7,30.10,West,274,0.0,0.0,87,0.00,CLR,OVC,0.00,WeatherDisplay:10.37,2013-05-09 05:52:00,
2013-05-09 01:57:00,61.3,57.7,30.09,West,274,0.0,0.0,88,0.00,CLR,OVC,0.00,WeatherDisplay:10.37,2013-05-09 05:57:00,
2013-05-09 02:02:00,61.3,57.7,30.09,West,274,0.0,0.0,88,0.00,CLR,OVC,0.00,WeatherDisplay:10.37,2013-05-09 06:02:00,
2013-05-09 02:07:00,61.2,57.9,30.09,West,274,0.0,0.0,89,0.00,CLR,OVC,0.00,WeatherDisplay:10.37,2013-05-09 06:07:00,
2013-05-09 02:12:00,61.5,57.6,30.10,West,274,0.0,0.0,87,0.00,CLR,OVC,0.00,WeatherDisplay:10.37,2013-05-09 06:12:00,
2013-05-09 02:17:00,61.5,57.6,30.10,West,274,0.0,0.0,87,0.00,CLR,OVC,0.00,WeatherDisplay:10.37,2013-05-09 06:17:00,
2013-05-09 02:22:00,60.9,57.6,30.09,West,274,0.0,0.0,89,0.00,CLR,OVC,0.00,WeatherDisplay:10.37,2013-05-09 06:22:00,
2013-05-09 02:27:00,60.9,57.9,30.08,West,274,0.0,0.0,90,0.00,CLR,OVC,0.00,WeatherDisplay:10.37,2013-05-09 06:27:00,
2013-05-09 02:32:00,60.9,57.6,30.09,West,274,0.0,0.0,89,0.00,CLR,OVC,0.00,WeatherDisplay:10.37,2013-05-09 06:32:00,
2013-05-09 02:37:00,60.9,57.9,30.08,West,274,0.0,0.0,90,0.00,CLR,OVC,0.00,WeatherDisplay:10.37,2013-05-09 06:37:00,
2013-05-09 02:42:00,60.9,57.6,30.09,West,274,0.0,0.0,89,0.00,CLR,OVC,0.00,WeatherDisplay:10.37,2013-05-09 06:42:00,
2013-05-09 02:47:00,60.9,57.6,30.09,West,274,0.0,0.0,89,0.00,CLR,OVC,0.00,WeatherDisplay:10.37,2013-05-09 06:47:00,
2013-05-09 02:52:00,60.9,57.6,30.09,West,274,0.0,0.0,89,0.00,CLR,OVC,0.00,WeatherDisplay:10.37,2013-05-09 06:52:00,
2013-05-09 02:57:00,60.9,57.9,30.08,West,274,0.0,0.0,90,0.00,CLR,OVC,0.00,WeatherDisplay:10.37,2013-05-09 06:57:00,
2013-05-09 03:02:00,60.5,57.6,30.07,West,274,0.0,0.0,90,0.00,CLR,OVC,0.00,WeatherDisplay:10.37,2013-05-09 07:02:00,
2013-05-09 03:07:00,60.9,57.6,30.09,West,274,0.0,0.0,89,0.00,CLR,OVC,0.00,WeatherDisplay:10.37,2013-05-09 07:07:00,
2013-05-09 03:12:00,60.4,57.5,30.07,West,274,0.0,0.0,90,0.00,CLR,OVC,0.00,WeatherDisplay:10.37,2013-05-09 07:12:00,
2013-05-09 03:17:00,60.9,57.6,30.09,West,274,0.0,0.0,89,0.00,CLR,OVC,0.00,WeatherDisplay:10.37,2013-05-09 07:17:00,
2013-05-09 03:22:00,60.5,58.2,30.06,West,274,0.0,0.0,92,0.00,CLR,OVC,0.00,WeatherDisplay:10.37,2013-05-09 07:22:00,
2013-05-09 03:27:00,60.5,58.2,30.06,West,274,0.0,0.0,92,0.00,CLR,OVC,0.00,WeatherDisplay:10.37,2013-05-09 07:27:00,
2013-05-09 03:32:00,60.4,57.8,30.07,West,274,0.0,0.0,91,0.00,CLR,OVC,0.00,WeatherDisplay:10.37,2013-05-09 07:32:00,
2013-05-09 03:37:00,60.5,58.2,30.06,West,274,0.0,0.0,92,0.00,CLR,OVC,0.00,WeatherDisplay:10.37,2013-05-09 07:37:00,
2013-05-09 03:42:00,60.1,57.8,30.06,West,274,0.0,0.0,92,0.00,CLR,OVC,0.00,WeatherDisplay:10.37,2013-05-09 07:42:00,
2013-05-09 03:48:00,60.1,57.8,30.06,West,274,0.0,0.0,92,0.00,CLR,OVC,0.00,WeatherDisplay:10.37,2013-05-09 07:48:00,
2013-05-09 03:53:00,60.1,57.8,30.06,West,274,0.0,0.0,92,0.00,CLR,OVC,0.00,WeatherDisplay:10.37,2013-05-09 07:53:00,
2013-05-09 03:58:00,59.8,57.5,30.06,West,274,0.0,0.0,92,0.00,CLR,OVC,0.00,WeatherDisplay:10.37,2013-05-09 07:58:00,
2013-05-09 04:03:00,59.6,57.3,30.06,West,274,0.0,0.0,92,0.00,CLR,OVC,0.00,WeatherDisplay:10.37,2013-05-09 08:03:00,
2013-05-09 04:08:00,59.6,57.3,30.06,West,274,0.0,0.0,92,0.00,CLR,OVC,0.00,WeatherDisplay:10.37,2013-05-09 08:08:00,
2013-05-09 04:13:00,59.5,57.5,30.06,West,274,0.0,0.0,93,0.00,CLR,OVC,0.00,WeatherDisplay:10.37,2013-05-09 08:13:00,
2013-05-09 04:18:00,59.6,57.3,30.06,West,274,0.0,0.0,92,0.00,CLR,OVC,0.00,WeatherDisplay:10.37,2013-05-09 08:18:00,
2013-05-09 04:23:00,59.5,57.5,30.06,West,274,0.0,0.0,93,0.00,CLR,OVC,0.00,WeatherDisplay:10.37,2013-05-09 08:23:00,
2013-05-09 04:28:00,59.6,57.3,30.06,West,274,0.0,0.0,92,0.00,CLR,OVC,0.00,WeatherDisplay:10.37,2013-05-09 08:28:00,
2013-05-09 04:33:00,59.5,57.5,30.06,West,274,0.0,0.0,93,0.00,CLR,OVC,0.00,WeatherDisplay:10.37,2013-05-09 08:33:00,
2013-05-09 04:38:00,59.6,57.3,30.06,West,274,0.0,0.0,92,0.00,CLR,OVC,0.00,WeatherDisplay:10.37,2013-05-09 08:38:00,
2013-05-09 04:43:00,59.5,57.5,30.06,West,274,0.0,0.0,93,0.00,CLR,OVC,0.00,WeatherDisplay:10.37,2013-05-09 08:43:00,
2013-05-09 04:48:00,59.5,57.5,30.06,West,274,0.0,0.0,93,0.00,CLR,OVC,0.00,WeatherDisplay:10.37,2013-05-09 08:48:00,
2013-05-09 04:53:00,59.6,57.3,30.06,West,274,0.0,0.0,92,0.00,CLR,OVC,0.00,WeatherDisplay:10.37,2013-05-09 08:53:00,
2013-05-09 04:58:00,59.6,57.3,30.06,West,274,0.0,0.0,92,0.00,CLR,OVC,0.00,WeatherDisplay:10.37,2013-05-09 08:58:00,
2013-05-09 05:03:00,59.6,57.3,30.06,West,274,0.0,0.0,92,0.00,CLR,OVC,0.00,WeatherDisplay:10.37,2013-05-09 09:03:00,
2013-05-09 05:08:00,59.6,57.3,30.06,West,274,0.0,0.0,92,0.00,CLR,OVC,0.00,WeatherDisplay:10.37,2013-05-09 09:08:00,
2013-05-09 05:13:00,59.8,58.1,30.06,West,274,0.0,0.0,94,0.00,CLR,OVC,0.00,WeatherDisplay:10.37,2013-05-09 09:13:00,
2013-05-09 05:18:00,59.6,57.3,30.06,West,274,0.0,0.0,92,0.00,CLR,OVC,0.00,WeatherDisplay:10.37,2013-05-09 09:18:00,
2013-05-09 05:23:00,59.9,58.2,30.06,West,274,0.0,0.0,94,0.00,CLR,OVC,0.00,WeatherDisplay:10.37,2013-05-09 09:23:00,
2013-05-09 05:28:00,59.6,57.3,30.06,West,274,0.0,0.0,92,0.00,CLR,OVC,0.00,WeatherDisplay:10.37,2013-05-09 09:28:00,
2013-05-09 05:33:00,59.9,58.2,30.06,West,274,0.0,0.0,94,0.00,CLR,OVC,0.00,WeatherDisplay:10.37,2013-05-09 09:33:00,
2013-05-09 05:38:00,59.6,57.3,30.06,West,274,0.0,0.0,92,0.00,CLR,OVC,0.00,WeatherDisplay:10.37,2013-05-09 09:38:00,
2013-05-09 05:43:00,59.6,57.3,30.06,West,274,0.0,0.0,92,0.00,CLR,OVC,0.00,WeatherDisplay:10.37,2013-05-09 09:43:00,
2013-05-09 05:48:00,59.6,57.3,30.06,West,274,0.0,0.0,92,0.00,CLR,OVC,0.00,WeatherDisplay:10.37,2013-05-09 09:48:00,
2013-05-09 05:53:00,59.9,58.2,30.07,West,274,0.0,0.0,94,0.00,CLR,OVC,0.00,WeatherDisplay:10.37,2013-05-09 09:53:00,
2013-05-09 05:58:00,59.6,57.3,30.06,West,274,0.0,0.0,92,0.00,CLR,OVC,0.00,WeatherDisplay:10.37,2013-05-09 09:58:00,
2013-05-09 06:03:00,59.6,57.9,30.07,West,274,0.0,0.0,94,0.00,CLR,OVC,0.00,WeatherDisplay:10.37,2013-05-09 10:03:00,
2013-05-09 06:08:00,59.6,57.9,30.07,West,274,0.0,0.0,94,0.00,CLR,OVC,0.00,WeatherDisplay:10.37,2013-05-09 10:08:00,
2013-05-09 06:13:00,59.6,57.3,30.06,West,274,0.0,0.0,92,0.00,CLR,OVC,0.00,WeatherDisplay:10.37,2013-05-09 10:13:00,
2013-05-09 06:18:00,59.6,57.3,30.06,West,274,0.0,0.0,92,0.00,CLR,OVC,0.00,WeatherDisplay:10.37,2013-05-09 10:18:00,
2013-05-09 06:23:00,59.6,57.3,30.06,West,274,0.0,0.0,92,0.00,CLR,OVC,0.00,WeatherDisplay:10.37,2013-05-09 10:23:00,
2013-05-09 06:28:00,58.7,57.0,30.07,West,274,0.0,0.0,94,0.00,CLR,OVC,0.00,WeatherDisplay:10.37,2013-05-09 10:28:00,
2013-05-09 06:33:00,59.6,57.3,30.06,West,274,0.0,0.0,92,0.00,CLR,OVC,0.00,WeatherDisplay:10.37,2013-05-09 10:33:00,
2013-05-09 06:38:00,59.6,57.3,30.06,West,274,0.0,0.0,92,0.00,CLR,OVC,0.00,WeatherDisplay:10.37,2013-05-09 10:38:00,
2013-05-09 06:43:00,58.7,57.0,30.08,West,274,0.0,0.0,94,0.00,CLR,OVC,0.00,WeatherDisplay:10.37,2013-05-09 10:43:00,
2013-05-09 06:48:00,58.6,56.9,30.08,West,274,0.0,0.0,94,0.00,CLR,OVC,0.00,WeatherDisplay:10.37,2013-05-09 10:48:00,
2013-05-09 06:53:00,58.6,56.9,30.08,West,274,0.0,0.0,94,0.00,CLR,OVC,0.00,WeatherDisplay:10.37,2013-05-09 10:53:00,
2013-05-09 06:58:00,58.6,56.9,30.08,West,274,0.0,0.0,94,0.00,CLR,OVC,0.00,WeatherDisplay:10.37,2013-05-09 10:58:00,
2013-05-09 07:03:00,58.6,57.2,30.09,West,274,0.0,0.0,95,0.00,CLR,OVC,0.00,WeatherDisplay:10.37,2013-05-09 11:03:00,
2013-05-09 07:08:00,58.6,57.2,30.09,West,268,0.0,0.0,95,0.00,CLR,OVC,0.00,WeatherDisplay:10.37,2013-05-09 11:08:00,
2013-05-09 07:13:00,58.6,57.2,30.09,West,268,0.0,0.0,95,0.00,CLR,OVC,0.00,WeatherDisplay:10.37,2013-05-09 11:13:00,
2013-05-09 07:18:00,58.6,57.2,30.09,West,268,0.0,0.0,95,0.00,CLR,OVC,0.00,WeatherDisplay:10.37,2013-05-09 11:18:00,
2013-05-09 07:23:00,58.4,57.0,30.10,West,268,0.0,0.0,95,0.00,CLR,OVC,0.00,WeatherDisplay:10.37,2013-05-09 11:23:00,
2013-05-09 07:28:00,58.6,57.2,30.10,West,268,0.0,0.0,95,0.00,CLR,OVC,0.00,WeatherDisplay:10.37,2013-05-09 11:28:00,
2013-05-09 07:33:00,58.9,57.5,30.10,West,268,0.0,0.0,95,0.00,CLR,OVC,0.00,WeatherDisplay:10.37,2013-05-09 11:33:00,
2013-05-09 07:38:00,59.3,57.9,30.10,West,268,0.0,0.0,95,0.00,CLR,OVC,0.00,WeatherDisplay:10.37,2013-05-09 11:38:00,
2013-05-09 07:43:00,59.3,57.9,30.10,West,268,0.0,0.0,95,0.00,CLR,OVC,0.00,WeatherDisplay:10.37,2013-05-09 11:43:00,
2013-05-09 07:48:00,59.3,57.9,30.10,West,268,0.0,0.0,95,0.00,CLR,OVC,0.00,WeatherDisplay:10.37,2013-05-09 11:48:00,
2013-05-09 07:53:00,59.3,57.9,30.10,West,268,0.0,0.0,95,0.00,CLR,OVC,0.00,WeatherDisplay:10.37,2013-05-09 11:53:00,
2013-05-09 07:58:00,60.5,59.4,30.11,West,268,0.0,0.0,96,0.00,CLR,OVC,0.00,WeatherDisplay:10.37,2013-05-09 11:58:00,
2013-05-09 08:03:00,61.2,60.3,30.11,West,268,0.0,0.0,97,0.00,CLR,OVC,0.00,WeatherDisplay:10.37,2013-05-09 12:03:00,
2013-05-09 08:08:00,59.3,57.9,30.10,West,268,0.0,0.0,95,0.00,CLR,OVC,0.00,WeatherDisplay:10.37,2013-05-09 12:08:00,
2013-05-09 08:13:00,59.3,57.9,30.10,West,268,0.0,0.0,95,0.00,CLR,OVC,0.00,WeatherDisplay:10.37,2013-05-09 12:13:00,
2013-05-09 08:18:00,59.3,57.9,30.10,West,268,0.0,0.0,95,0.00,CLR,OVC,0.00,WeatherDisplay:10.37,2013-05-09 12:18:00,
2013-05-09 08:23:00,59.3,57.9,30.10,West,268,0.0,0.0,95,0.00,CLR,OVC,0.00,WeatherDisplay:10.37,2013-05-09 12:23:00,
2013-05-09 08:28:00,63.2,62.3,30.11,North,0,0.0,0.0,97,0.00,CLR,OVC,0.00,WeatherDisplay:10.37,2013-05-09 12:28:00,
2013-05-09 08:33:00,64.0,63.1,30.12,NW,325,0.0,0.0,97,0.00,CLR,OVC,0.00,WeatherDisplay:10.37,2013-05-09 12:33:00,
2013-05-09 08:38:00,59.3,57.9,30.10,West,268,0.0,0.0,95,0.00,CLR,OVC,0.00,WeatherDisplay:10.37,2013-05-09 12:38:00,
2013-05-09 08:43:00,59.3,57.9,30.10,West,268,0.0,0.0,95,0.00,CLR,OVC,0.00,WeatherDisplay:10.37,2013-05-09 12:43:00,
2013-05-09 08:48:00,59.3,57.9,30.10,West,268,0.0,0.0,95,0.00,CLR,OVC,0.00,WeatherDisplay:10.37,2013-05-09 12:48:00,
2013-05-09 08:53:00,59.3,57.9,30.10,West,268,0.0,0.0,95,0.00,CLR,OVC,0.00,WeatherDisplay:10.37,2013-05-09 12:53:00,
2013-05-09 08:58:00,59.3,57.9,30.10,West,268,0.0,0.0,95,0.00,CLR,OVC,0.00,WeatherDisplay:10.37,2013-05-09 12:58:00,
2013-05-09 09:03:00,59.3,57.9,30.10,West,268,0.0,0.0,95,0.00,CLR,OVC,0.00,WeatherDisplay:10.37,2013-05-09 13:03:00,
2013-05-09 09:08:00,67.8,63.1,30.13,North,3,0.0,0.0,85,0.00,CLR,OVC,0.00,WeatherDisplay:10.37,2013-05-09 13:08:00,
2013-05-09 09:13:00,68.1,63.1,30.13,North,3,0.0,0.0,84,0.00,CLR,OVC,0.00,WeatherDisplay:10.37,2013-05-09 13:13:00,
2013-05-09 09:18:00,68.9,63.2,30.13,NW,316,0.0,0.0,82,0.00,CLR,OVC,0.00,WeatherDisplay:10.37,2013-05-09 13:18:00,
2013-05-09 09:23:00,69.4,63.3,30.13,North,349,3.0,3.5,81,0.00,CLR,OVC,0.00,WeatherDisplay:10.37,2013-05-09 13:23:00,
2013-05-09 09:28:00,69.8,63.3,30.13,North,8,0.0,5.8,80,0.00,CLR,OVC,0.00,WeatherDisplay:10.37,2013-05-09 13:28:00,
2013-05-09 09:33:00,70.1,63.6,30.13,NNE,27,3.0,3.5,80,0.00,CLR,OVC,0.00,WeatherDisplay:10.37,2013-05-09 13:33:00,
2013-05-09 09:38:00,68.9,63.2,30.13,NW,316,0.0,0.0,82,0.00,CLR,OVC,0.00,WeatherDisplay:10.37,2013-05-09 13:38:00,
2013-05-09 09:43:00,68.9,63.2,30.13,NW,316,0.0,0.0,82,0.00,CLR,OVC,0.00,WeatherDisplay:10.37,2013-05-09 13:43:00,
2013-05-09 09:48:00,71.3,64.4,30.13,North,359,2.6,0.0,79,0.00,CLR,OVC,0.00,WeatherDisplay:10.37,2013-05-09 13:48:00,
2013-05-09 09:53:00,71.8,63.8,30.13,North,6,2.4,2.4,76,0.00,CLR,OVC,0.00,WeatherDisplay:10.37,2013-05-09 13:53:00,
2013-05-09 09:58:00,68.9,63.2,30.13,NW,316,0.0,0.0,82,0.00,CLR,OVC,0.00,WeatherDisplay:10.37,2013-05-09 13:58:00,
2013-05-09 10:03:00,68.9,63.2,30.13,NW,316,0.0,0.0,82,0.00,CLR,OVC,0.00,WeatherDisplay:10.37,2013-05-09 14:03:00,
2013-05-09 10:08:00,68.9,63.2,30.13,NW,316,0.0,0.0,82,0.00,CLR,OVC,0.00,WeatherDisplay:10.37,2013-05-09 14:08:00,
2013-05-09 10:13:00,68.9,63.2,30.13,NW,316,0.0,0.0,82,0.00,CLR,OVC,0.00,WeatherDisplay:10.37,2013-05-09 14:13:00,
2013-05-09 10:18:00,73.7,62.9,30.13,WNW,299,0.0,1.1,69,0.00,CLR,OVC,0.00,WeatherDisplay:10.37,2013-05-09 14:18:00,
2013-05-09 10:23:00,68.9,63.2,30.13,NW,316,0.0,0.0,82,0.00,CLR,OVC,0.00,WeatherDisplay:10.37,2013-05-09 14:23:00,
2013-05-09 10:28:00,68.9,63.2,30.13,NW,316,0.0,0.0,82,0.00,CLR,OVC,0.00,WeatherDisplay:10.37,2013-05-09 14:28:00,
2013-05-09 10:33:00,74.6,62.5,30.13,NNW,342,0.0,0.0,66,0.00,CLR,OVC,0.00,WeatherDisplay:10.37,2013-05-09 14:33:00,
2013-05-09 10:38:00,68.9,63.2,30.13,NW,316,0.0,0.0,82,0.00,CLR,OVC,0.00,WeatherDisplay:10.37,2013-05-09 14:38:00,
2013-05-09 10:43:00,74.7,61.3,30.13,WNW,299,0.0,1.1,63,0.00,CLR,OVC,0.00,WeatherDisplay:10.37,2013-05-09 14:43:00,
2013-05-09 10:48:00,68.9,63.2,30.13,NW,316,0.0,0.0,82,0.00,CLR,OVC,0.00,WeatherDisplay:10.37,2013-05-09 14:48:00,
2013-05-09 10:53:00,68.9,63.2,30.13,NW,316,0.0,0.0,82,0.00,CLR,OVC,0.00,WeatherDisplay:10.37,2013-05-09 14:53:00,
2013-05-09 10:58:00,68.9,63.2,30.13,NW,316,0.0,0.0,82,0.00,CLR,OVC,0.00,WeatherDisplay:10.37,2013-05-09 14:58:00,
2013-05-09 11:03:00,75.6,60.3,30.13,North,0,5.0,5.0,59,0.00,CLR,OVC,0.00,WeatherDisplay:10.37,2013-05-09 15:03:00,
2013-05-09 11:08:00,68.9,63.2,30.13,NW,316,0.0,0.0,82,0.00,CLR,OVC,0.00,WeatherDisplay:10.37,2013-05-09 15:08:00,
2013-05-09 11:13:00,75.6,60.3,30.13,North,0,5.0,5.0,59,0.00,CLR,OVC,0.00,WeatherDisplay:10.37,2013-05-09 15:13:00,
2013-05-09 11:18:00,77.0,60.6,30.13,SE,138,0.0,0.0,57,0.00,CLR,OVC,0.00,WeatherDisplay:10.37,2013-05-09 15:18:00,
2013-05-09 11:23:00,68.9,63.2,30.13,NW,316,0.0,0.0,82,0.00,CLR,OVC,0.00,WeatherDisplay:10.37,2013-05-09 15:23:00,
2013-05-09 11:28:00,68.9,63.2,30.13,NW,316,0.0,0.0,82,0.00,CLR,OVC,0.00,WeatherDisplay:10.37,2013-05-09 15:28:00,
2013-05-09 11:33:00,68.9,63.2,30.13,NW,316,0.0,0.0,82,0.00,CLR,OVC,0.00,WeatherDisplay:10.37,2013-05-09 15:33:00,
2013-05-09 11:38:00,78.1,60.6,30.13,WSW,253,0.0,0.0,55,0.00,CLR,OVC,0.00,WeatherDisplay:10.37,2013-05-09 15:38:00,
2013-05-09 11:43:00,78.1,60.6,30.13,WSW,253,0.0,0.0,55,0.00,CLR,OVC,0.00,WeatherDisplay:10.37,2013-05-09 15:43:00,
2013-05-09 11:48:00,68.9,63.2,30.13,NW,316,0.0,0.0,82,0.00,CLR,OVC,0.00,WeatherDisplay:10.37,2013-05-09 15:48:00,
2013-05-09 11:53:00,78.6,61.1,30.13,WSW,254,0.0,0.0,55,0.00,CLR,OVC,0.00,WeatherDisplay:10.37,2013-05-09 15:53:00,
2013-05-09 11:58:00,68.9,63.2,30.13,NW,316,0.0,0.0,82,0.00,CLR,OVC,0.00,WeatherDisplay:10.37,2013-05-09 15:58:00,
2013-05-09 12:03:00,68.9,63.2,30.13,NW,316,0.0,0.0,82,0.00,CLR,OVC,0.00,WeatherDisplay:10.37,2013-05-09 16:03:00,
2013-05-09 12:08:00,68.9,63.2,30.13,NW,316,0.0,0.0,82,0.00,CLR,OVC,0.00,WeatherDisplay:10.37,2013-05-09 16:08:00,
2013-05-09 12:13:00,79.8,59.5,30.13,WNW,299,0.7,0.0,50,0.00,CLR,OVC,0.00,WeatherDisplay:10.37,2013-05-09 16:13:00,
2013-05-09 12:18:00,68.9,63.2,30.13,NW,316,0.0,0.0,82,0.00,CLR,OVC,0.00,WeatherDisplay:10.37,2013-05-09 16:18:00,
2013-05-09 12:23:00,79.2,59.0,30.13,NNE,32,0.0,0.0,50,0.00,CLR,OVC,0.00,WeatherDisplay:10.37,2013-05-09 16:23:00,
2013-05-09 12:28:00,79.0,59.9,30.13,South,176,0.0,0.0,52,0.00,CLR,OVC,0.00,WeatherDisplay:10.37,2013-05-09 16:28:00,
2013-05-09 12:33:00,78.8,59.1,30.13,WSW,253,0.5,5.8,51,0.00,CLR,OVC,0.00,WeatherDisplay:10.37,2013-05-09 16:33:00,
2013-05-09 12:38:00,68.9,63.2,30.13,NW,316,0.0,0.0,82,0.00,CLR,OVC,0.00,WeatherDisplay:10.37,2013-05-09 16:38:00,
2013-05-09 12:43:00,79.0,57.6,30.13,North,1,6.0,6.0,48,0.00,CLR,OVC,0.00,WeatherDisplay:10.37,2013-05-09 16:43:00,
2013-05-09 12:48:00,79.6,58.8,30.13,SW,216,1.0,2.3,49,0.00,CLR,OVC,0.00,WeatherDisplay:10.37,2013-05-09 16:48:00,
2013-05-09 12:53:00,80.3,57.6,30.13,SSW,202,1.9,2.3,46,0.00,CLR,OVC,0.00,WeatherDisplay:10.37,2013-05-09 16:53:00,
2013-05-09 12:58:00,68.9,63.2,30.13,NW,316,0.0,0.0,82,0.00,CLR,OVC,0.00,WeatherDisplay:10.37,2013-05-09 16:58:00,
2013-05-09 13:03:00,68.9,63.2,30.13,NW,316,0.0,0.0,82,0.00,CLR,OVC,0.00,WeatherDisplay:10.37,2013-05-09 17:03:00,
2013-05-09 13:08:00,68.9,63.2,30.13,NW,316,0.0,0.0,82,0.00,CLR,OVC,0.00,WeatherDisplay:10.37,2013-05-09 17:08:00,
2013-05-09 13:13:00,68.9,63.2,30.13,NW,316,0.0,0.0,82,0.00,CLR,OVC,0.00,WeatherDisplay:10.37,2013-05-09 17:13:00,
2013-05-09 13:18:00,82.0,60.4,30.12,East,99,0.0,0.0,48,0.00,CLR,OVC,0.00,WeatherDisplay:10.37,2013-05-09 17:18:00,
2013-05-09 13:23:00,68.9,63.2,30.13,NW,316,0.0,0.0,82,0.00,CLR,OVC,0.00,WeatherDisplay:10.37,2013-05-09 17:23:00,
2013-05-09 13:28:00,82.0,60.4,30.12,East,99,0.0,0.0,48,0.00,CLR,OVC,0.00,WeatherDisplay:10.37,2013-05-09 17:28:00,
2013-05-09 13:33:00,68.9,63.2,30.13,NW,316,0.0,0.0,82,0.00,CLR,OVC,0.00,WeatherDisplay:10.37,2013-05-09 17:33:00,
2013-05-09 13:38:00,80.3,58.2,30.11,SSE,147,0.0,0.0,47,0.00,CLR,OVC,0.00,WeatherDisplay:10.37,2013-05-09 17:38:00,
2013-05-09 13:43:00,68.9,63.2,30.13,NW,316,0.0,0.0,82,0.00,CLR,OVC,0.00,WeatherDisplay:10.37,2013-05-09 17:43:00,
2013-05-09 13:48:00,80.3,58.8,30.11,SSW,192,0.0,2.3,48,0.00,CLR,OVC,0.00,WeatherDisplay:10.37,2013-05-09 17:48:00,
2013-05-09 13:53:00,81.2,60.2,30.10,SE,128,2.0,2.3,49,0.00,CLR,OVC,0.00,WeatherDisplay:10.37,2013-05-09 17:53:00,
2013-05-09 13:58:00,68.9,63.2,30.13,NW,316,0.0,0.0,82,0.00,CLR,OVC,0.00,WeatherDisplay:10.37,2013-05-09 17:58:00,
2013-05-09 14:03:00,68.9,63.2,30.13,NW,316,0.0,0.0,82,0.00,CLR,OVC,0.00,WeatherDisplay:10.37,2013-05-09 18:03:00,
2013-05-09 14:08:00,68.9,63.2,30.13,NW,316,0.0,0.0,82,0.00,CLR,OVC,0.00,WeatherDisplay:10.37,2013-05-09 18:08:00,
2013-05-09 14:13:00,68.9,63.2,30.13,NW,316,0.0,0.0,82,0.00,CLR,OVC,0.00,WeatherDisplay:10.37,2013-05-09 18:13:00,
2013-05-09 14:18:00,82.8,58.7,30.10,South,185,1.0,0.0,44,0.00,CLR,OVC,0.00,WeatherDisplay:10.37,2013-05-09 18:18:00,
2013-05-09 14:23:00,68.9,63.2,30.13,NW,316,0.0,0.0,82,0.00,CLR,OVC,0.00,WeatherDisplay:10.37,2013-05-09 18:23:00,
2013-05-09 14:28:00,83.4,58.6,30.10,WSW,258,0.0,0.0,43,0.00,CLR,OVC,0.00,WeatherDisplay:10.37,2013-05-09 18:28:00,
2013-05-09 14:33:00,68.9,63.2,30.13,NW,316,0.0,0.0,82,0.00,CLR,OVC,0.00,WeatherDisplay:10.37,2013-05-09 18:33:00,
2013-05-09 14:38:00,68.9,63.2,30.13,NW,316,0.0,0.0,82,0.00,CLR,OVC,0.00,WeatherDisplay:10.37,2013-05-09 18:38:00,
2013-05-09 14:43:00,68.9,63.2,30.13,NW,316,0.0,0.0,82,0.00,CLR,OVC,0.00,WeatherDisplay:10.37,2013-05-09 18:43:00,
2013-05-09 14:48:00,68.9,63.2,30.13,NW,316,0.0,0.0,82,0.00,CLR,OVC,0.00,WeatherDisplay:10.37,2013-05-09 18:48:00,
2013-05-09 14:53:00,82.6,58.5,30.09,SSW,202,0.0,1.1,44,0.00,CLR,OVC,0.00,WeatherDisplay:10.37,2013-05-09 18:53:00,
2013-05-09 14:58:00,68.9,63.2,30.13,NW,316,0.0,0.0,82,0.00,CLR,OVC,0.00,WeatherDisplay:10.37,2013-05-09 18:58:00,
2013-05-09 15:03:00,82.6,58.5,30.09,SSW,202,0.0,1.1,44,0.00,CLR,OVC,0.00,WeatherDisplay:10.37,2013-05-09 19:03:00,
2013-05-09 15:08:00,82.6,58.5,30.09,SSW,202,0.0,1.1,44,0.00,CLR,OVC,0.00,WeatherDisplay:10.37,2013-05-09 19:08:00,
2013-05-09 15:13:00,68.9,63.2,30.13,NW,316,0.0,0.0,82,0.00,CLR,OVC,0.00,WeatherDisplay:10.37,2013-05-09 19:13:00,
2013-05-09 15:18:00,68.9,63.2,30.13,NW,316,0.0,0.0,82,0.00,CLR,OVC,0.00,WeatherDisplay:10.37,2013-05-09 19:18:00,
2013-05-09 15:23:00,68.9,63.2,30.13,NW,316,0.0,0.0,82,0.00,CLR,OVC,0.00,WeatherDisplay:10.37,2013-05-09 19:23:00,
2013-05-09 15:28:00,83.8,57.6,30.08,South,189,0.0,3.5,41,0.00,CLR,OVC,0.00,WeatherDisplay:10.37,2013-05-09 19:28:00,
2013-05-09 15:33:00,83.2,58.4,30.08,SSW,199,3.0,3.5,43,0.00,CLR,OVC,0.00,WeatherDisplay:10.37,2013-05-09 19:33:00,
2013-05-09 15:38:00,68.9,63.2,30.13,NW,316,0.0,0.0,82,0.00,CLR,OVC,0.00,WeatherDisplay:10.37,2013-05-09 19:38:00,
2013-05-09 15:43:00,83.2,58.4,30.08,SSW,199,3.0,0.0,43,0.00,CLR,OVC,0.00,WeatherDisplay:10.37,2013-05-09 19:43:00,
2013-05-09 15:48:00,68.9,63.2,30.13,NW,316,0.0,0.0,82,0.00,CLR,OVC,0.00,WeatherDisplay:10.37,2013-05-09 19:48:00,
2013-05-09 15:53:00,84.7,58.4,30.07,NW,313,0.0,1.1,41,0.00,CLR,OVC,0.00,WeatherDisplay:10.37,2013-05-09 19:53:00,
2013-05-09 15:58:00,84.9,57.9,30.07,South,186,0.0,0.0,40,0.00,CLR,OVC,0.00,WeatherDisplay:10.37,2013-05-09 19:58:00,
2013-05-09 16:03:00,84.7,58.4,30.07,NW,313,0.0,1.1,41,0.00,CLR,OVC,0.00,WeatherDisplay:10.37,2013-05-09 20:03:00,
2013-05-09 16:08:00,84.9,57.9,30.07,South,186,0.0,0.0,40,0.00,CLR,OVC,0.00,WeatherDisplay:10.37,2013-05-09 20:08:00,
2013-05-09 16:13:00,84.9,57.9,30.07,South,186,0.0,0.0,40,0.00,CLR,OVC,0.00,WeatherDisplay:10.37,2013-05-09 20:13:00,
2013-05-09 16:18:00,84.9,57.9,30.07,South,186,0.0,0.0,40,0.00,CLR,OVC,0.00,WeatherDisplay:10.37,2013-05-09 20:18:00,
2013-05-09 16:23:00,84.7,57.0,30.07,SSE,152,0.0,1.1,39,0.00,CLR,OVC,0.00,WeatherDisplay:10.37,2013-05-09 20:23:00,
2013-05-09 16:28:00,84.7,57.0,30.07,SSE,152,0.0,1.1,39,0.00,CLR,OVC,0.00,WeatherDisplay:10.37,2013-05-09 20:28:00,
2013-05-09 16:33:00,84.7,57.0,30.07,SE,137,0.0,1.1,39,0.00,CLR,OVC,0.00,WeatherDisplay:10.37,2013-05-09 20:33:00,
2013-05-09 16:38:00,84.7,57.7,30.06,ESE,109,0.6,1.1,40,0.00,CLR,OVC,0.00,WeatherDisplay:10.37,2013-05-09 20:38:00,
2013-05-09 16:43:00,84.7,57.7,30.06,ESE,109,0.6,1.1,40,0.00,CLR,OVC,0.00,WeatherDisplay:10.37,2013-05-09 20:43:00,
2013-05-09 16:48:00,84.3,56.6,30.06,South,184,1.0,0.0,39,0.00,CLR,OVC,0.00,WeatherDisplay:10.37,2013-05-09 20:48:00,
2013-05-09 16:53:00,84.3,56.6,30.06,South,184,1.0,0.0,39,0.00,CLR,OVC,0.00,WeatherDisplay:10.37,2013-05-09 20:53:00,
2013-05-09 16:58:00,84.7,57.7,30.06,South,171,2.0,2.3,40,0.00,CLR,OVC,0.00,WeatherDisplay:10.37,2013-05-09 20:58:00,
2013-05-09 17:03:00,84.7,57.0,30.07,SSE,152,0.0,1.1,39,0.00,CLR,OVC,0.00,WeatherDisplay:10.37,2013-05-09 21:03:00,
2013-05-09 17:08:00,85.7,57.9,30.06,SSW,192,0.0,6.9,39,0.00,CLR,OVC,0.00,WeatherDisplay:10.37,2013-05-09 21:08:00,
2013-05-09 17:13:00,84.9,57.9,30.06,SSE,167,7.0,7.0,40,0.00,CLR,OVC,0.00,WeatherDisplay:10.37,2013-05-09 21:13:00,
2013-05-09 17:18:00,84.7,57.0,30.07,SSE,152,0.0,1.1,39,0.00,CLR,OVC,0.00,WeatherDisplay:10.37,2013-05-09 21:18:00,
2013-05-09 17:23:00,84.7,57.0,30.07,SSE,152,0.0,1.1,39,0.00,CLR,OVC,0.00,WeatherDisplay:10.37,2013-05-09 21:23:00,
2013-05-09 17:28:00,84.7,57.0,30.07,SSE,152,0.0,1.1,39,0.00,CLR,OVC,0.00,WeatherDisplay:10.37,2013-05-09 21:28:00,
2013-05-09 17:33:00,84.7,57.0,30.07,SSE,152,0.0,1.1,39,0.00,CLR,OVC,0.00,WeatherDisplay:10.37,2013-05-09 21:33:00,
2013-05-09 17:38:00,84.7,57.0,30.07,SSE,152,0.0,1.1,39,0.00,CLR,OVC,0.00,WeatherDisplay:10.37,2013-05-09 21:38:00,
2013-05-09 17:43:00,84.7,57.0,30.07,SSE,152,0.0,1.1,39,0.00,CLR,OVC,0.00,WeatherDisplay:10.37,2013-05-09 21:43:00,
2013-05-09 17:48:00,84.3,59.4,30.06,SSW,212,0.0,0.0,43,0.00,CLR,OVC,0.00,WeatherDisplay:10.37,2013-05-09 21:48:00,
2013-05-09 17:53:00,84.3,59.4,30.06,SSW,212,0.0,0.0,43,0.00,CLR,OVC,0.00,WeatherDisplay:10.37,2013-05-09 21:53:00,
2013-05-09 17:58:00,84.3,59.4,30.06,SSW,212,0.0,0.0,43,0.00,CLR,OVC,0.00,WeatherDisplay:10.37,2013-05-09 21:58:00,
2013-05-09 18:03:00,84.3,57.3,30.06,West,275,0.0,0.0,40,0.00,CLR,OVC,0.00,WeatherDisplay:10.37,2013-05-09 22:03:00,
2013-05-09 18:08:00,84.7,57.0,30.07,SSE,152,0.0,1.1,39,0.00,CLR,OVC,0.00,WeatherDisplay:10.37,2013-05-09 22:08:00,
2013-05-09 18:13:00,84.7,57.0,30.07,SSE,152,0.0,1.1,39,0.00,CLR,OVC,0.00,WeatherDisplay:10.37,2013-05-09 22:13:00,
2013-05-09 18:18:00,84.0,57.1,30.05,SSE,148,0.0,0.0,40,0.00,CLR,OVC,0.00,WeatherDisplay:10.37,2013-05-09 22:18:00,
2013-05-09 18:23:00,84.7,57.0,30.07,SSE,152,0.0,1.1,39,0.00,CLR,OVC,0.00,WeatherDisplay:10.37,2013-05-09 22:23:00,
2013-05-09 18:28:00,83.8,57.6,30.05,SE,134,0.0,0.0,41,0.00,CLR,OVC,0.00,WeatherDisplay:10.37,2013-05-09 22:28:00,
2013-05-09 18:33:00,83.8,57.6,30.05,SE,134,0.0,0.0,41,0.00,CLR,OVC,0.00,WeatherDisplay:10.37,2013-05-09 22:33:00,
2013-05-09 18:38:00,84.7,57.0,30.07,SSE,152,0.0,1.1,39,0.00,CLR,OVC,0.00,WeatherDisplay:10.37,2013-05-09 22:38:00,
2013-05-09 18:43:00,84.7,57.0,30.07,SSE,152,0.0,1.1,39,0.00,CLR,OVC,0.00,WeatherDisplay:10.37,2013-05-09 22:43:00,
2013-05-09 18:48:00,84.7,57.0,30.07,SSE,152,0.0,1.1,39,0.00,CLR,OVC,0.00,WeatherDisplay:10.37,2013-05-09 22:48:00,
2013-05-09 18:53:00,83.6,58.1,30.05,SE,131,0.0,0.0,42,0.00,CLR,OVC,0.00,WeatherDisplay:10.37,2013-05-09 22:53:00,
2013-05-09 18:58:00,83.4,58.6,30.05,SE,131,0.0,0.0,43,0.00,CLR,OVC,0.00,WeatherDisplay:10.37,2013-05-09 22:58:00,
2013-05-09 19:03:00,84.7,57.0,30.07,SSE,152,0.0,1.1,39,0.00,CLR,OVC,0.00,WeatherDisplay:10.37,2013-05-09 23:03:00,
2013-05-09 19:08:00,83.4,58.6,30.05,SE,131,0.0,0.0,43,0.00,CLR,OVC,0.00,WeatherDisplay:10.37,2013-05-09 23:08:00,
2013-05-09 19:13:00,83.4,58.6,30.05,SE,131,0.0,0.0,43,0.00,CLR,OVC,0.00,WeatherDisplay:10.37,2013-05-09 23:13:00,
2013-05-09 19:18:00,84.7,57.0,30.07,SSE,152,0.0,1.1,39,0.00,CLR,OVC,0.00,WeatherDisplay:10.37,2013-05-09 23:18:00,
2013-05-09 19:23:00,82.2,57.5,30.05,SE,134,0.0,0.0,43,0.00,CLR,OVC,0.00,WeatherDisplay:10.37,2013-05-09 23:23:00,
2013-05-09 19:28:00,82.0,57.3,30.05,SE,134,0.0,0.0,43,0.00,CLR,OVC,0.00,WeatherDisplay:10.37,2013-05-09 23:28:00,
2013-05-09 19:33:00,81.8,57.1,30.05,SE,134,0.0,0.0,43,0.00,CLR,OVC,0.00,WeatherDisplay:10.37,2013-05-09 23:33:00,
2013-05-09 19:38:00,84.7,57.0,30.07,SSE,152,0.0,1.1,39,0.00,CLR,OVC,0.00,WeatherDisplay:10.37,2013-05-09 23:38:00,
2013-05-09 19:43:00,84.7,57.0,30.07,SSE,152,0.0,1.1,39,0.00,CLR,OVC,0.00,WeatherDisplay:10.37,2013-05-09 23:43:00,
2013-05-09 19:48:00,84.7,57.0,30.07,SSE,152,0.0,1.1,39,0.00,CLR,OVC,0.00,WeatherDisplay:10.37,2013-05-09 23:48:00,
2013-05-09 19:53:00,81.6,57.6,30.06,SE,134,0.0,0.0,44,0.00,CLR,OVC,0.00,WeatherDisplay:10.37,2013-05-09 23:53:00,
2013-05-09 19:58:00,84.7,57.0,30.07,SSE,152,0.0,1.1,39,0.00,CLR,OVC,0.00,WeatherDisplay:10.37,2013-05-09 23:58:00,
2013-05-09 20:03:00,84.7,57.0,30.07,SSE,152,0.0,1.1,39,0.00,CLR,OVC,0.00,WeatherDisplay:10.37,2013-05-10 00:03:00,
2013-05-09 20:08:00,84.7,57.0,30.07,SSE,152,0.0,1.1,39,0.00,CLR,OVC,0.00,WeatherDisplay:10.37,2013-05-10 00:08:00,
2013-05-09 20:13:00,79.9,57.9,30.06,SE,134,0.0,0.0,47,0.00,CLR,OVC,0.00,WeatherDisplay:10.37,2013-05-10 00:13:00,
2013-05-09 20:18:00,79.2,58.4,30.06,SE,134,0.0,0.0,49,0.00,CLR,OVC,0.00,WeatherDisplay:10.37,2013-05-10 00:18:00,
2013-05-09 20:23:00,84.7,57.0,30.07,SSE,152,0.0,1.1,39,0.00,CLR,OVC,0.00,WeatherDisplay:10.37,2013-05-10 00:23:00,
2013-05-09 20:28:00,84.7,57.0,30.07,SSE,152,0.0,1.1,39,0.00,CLR,OVC,0.00,WeatherDisplay:10.37,2013-05-10 00:28:00,
2013-05-09 20:33:00,78.3,58.7,30.06,SE,134,0.0,0.0,51,0.00,CLR,OVC,0.00,WeatherDisplay:10.37,2013-05-10 00:33:00,
2013-05-09 20:38:00,84.7,57.0,30.07,SSE,152,0.0,1.1,39,0.00,CLR,OVC,0.00,WeatherDisplay:10.37,2013-05-10 00:38:00,
2013-05-09 20:43:00,84.7,57.0,30.07,SSE,152,0.0,1.1,39,0.00,CLR,OVC,0.00,WeatherDisplay:10.37,2013-05-10 00:43:00,
2013-05-09 20:48:00,84.7,57.0,30.07,SSE,152,0.0,1.1,39,0.00,CLR,OVC,0.00,WeatherDisplay:10.37,2013-05-10 00:48:00,
2013-05-09 20:53:00,84.7,57.0,30.07,SSE,152,0.0,1.1,39,0.00,CLR,OVC,0.00,WeatherDisplay:10.37,2013-05-10 00:53:00,
2013-05-09 20:58:00,76.3,58.9,30.07,SE,134,0.0,0.0,55,0.00,CLR,OVC,0.00,WeatherDisplay:10.37,2013-05-10 00:58:00,
2013-05-09 21:03:00,84.7,57.0,30.07,SSE,152,0.0,1.1,39,0.00,CLR,OVC,0.00,WeatherDisplay:10.37,2013-05-10 01:03:00,
2013-05-09 21:08:00,75.8,59.0,30.08,SE,134,0.0,0.0,56,0.00,CLR,OVC,0.00,WeatherDisplay:10.37,2013-05-10 01:08:00,
2013-05-09 21:13:00,84.7,57.0,30.07,SSE,152,0.0,1.1,39,0.00,CLR,OVC,0.00,WeatherDisplay:10.37,2013-05-10 01:13:00,
2013-05-09 21:18:00,75.1,60.7,30.08,East,80,0.0,2.3,61,0.00,CLR,OVC,0.00,WeatherDisplay:10.37,2013-05-10 01:18:00,
2013-05-09 21:23:00,74.7,61.7,30.08,ENE,62,0.0,0.0,64,0.00,CLR,OVC,0.00,WeatherDisplay:10.37,2013-05-10 01:23:00,
2013-05-09 21:28:00,74.7,61.7,30.08,ENE,76,0.0,0.0,64,0.00,CLR,OVC,0.00,WeatherDisplay:10.37,2013-05-10 01:28:00,
2013-05-09 21:33:00,84.7,57.0,30.07,SSE,152,0.0,1.1,39,0.00,CLR,OVC,0.00,WeatherDisplay:10.37,2013-05-10 01:33:00,
2013-05-09 21:38:00,84.7,57.0,30.07,SSE,152,0.0,1.1,39,0.00,CLR,OVC,0.00,WeatherDisplay:10.37,2013-05-10 01:38:00,
2013-05-09 21:43:00,84.7,57.0,30.07,SSE,152,0.0,1.1,39,0.00,CLR,OVC,0.00,WeatherDisplay:10.37,2013-05-10 01:43:00,
2013-05-09 21:48:00,74.6,62.1,30.08,East,85,0.0,0.0,65,0.00,CLR,OVC,0.00,WeatherDisplay:10.37,2013-05-10 01:48:00,
2013-05-09 21:53:00,73.9,62.2,30.09,ESE,102,0.0,0.0,67,0.00,CLR,OVC,0.00,WeatherDisplay:10.37,2013-05-10 01:53:00,
2013-05-09 21:58:00,84.7,57.0,30.07,SSE,152,0.0,1.1,39,0.00,CLR,OVC,0.00,WeatherDisplay:10.37,2013-05-10 01:58:00,
2013-05-09 22:03:00,73.9,62.2,30.09,ESE,102,0.0,0.0,67,0.00,CLR,OVC,0.00,WeatherDisplay:10.37,2013-05-10 02:03:00,
2013-05-09 22:08:00,73.7,62.5,30.09,SSW,202,0.0,0.0,68,0.00,CLR,OVC,0.00,WeatherDisplay:10.37,2013-05-10 02:08:00,
2013-05-09 22:13:00,73.7,62.1,30.09,SSW,202,1.0,0.0,67,0.00,CLR,OVC,0.00,WeatherDisplay:10.37,2013-05-10 02:13:00,
2013-05-09 22:18:00,73.5,61.9,30.09,SE,124,0.0,0.0,67,0.00,CLR,OVC,0.00,WeatherDisplay:10.37,2013-05-10 02:18:00,
2013-05-09 22:23:00,73.7,62.1,30.09,SSW,202,1.0,0.0,67,0.00,CLR,OVC,0.00,WeatherDisplay:10.37,2013-05-10 02:23:00,
2013-05-09 22:28:00,74.0,61.5,30.10,SE,140,0.0,0.0,65,0.00,CLR,OVC,0.00,WeatherDisplay:10.37,2013-05-10 02:28:00,
2013-05-09 22:33:00,74.0,61.5,30.10,SE,140,0.0,0.0,65,0.00,CLR,OVC,0.00,WeatherDisplay:10.37,2013-05-10 02:33:00,
2013-05-09 22:38:00,74.0,61.5,30.10,SE,140,0.0,0.0,65,0.00,CLR,OVC,0.00,WeatherDisplay:10.37,2013-05-10 02:38:00,
2013-05-09 22:43:00,74.0,61.5,30.10,SE,140,0.0,0.0,65,0.00,CLR,OVC,0.00,WeatherDisplay:10.37,2013-05-10 02:43:00,
2013-05-09 22:48:00,74.0,61.5,30.10,SE,130,0.0,0.0,65,0.00,CLR,OVC,0.00,WeatherDisplay:10.37,2013-05-10 02:48:00,
2013-05-09 22:53:00,73.9,61.8,30.10,SSE,154,0.0,0.0,66,0.00,CLR,OVC,0.00,WeatherDisplay:10.37,2013-05-10 02:53:00,
2013-05-09 22:58:00,74.0,61.5,30.10,SE,140,0.0,0.0,65,0.00,CLR,OVC,0.00,WeatherDisplay:10.37,2013-05-10 02:58:00,
2013-05-09 23:03:00,73.7,61.6,30.10,SSE,154,0.0,0.0,66,0.00,CLR,OVC,0.00,WeatherDisplay:10.37,2013-05-10 03:03:00,
2013-05-09 23:08:00,73.7,61.6,30.10,SSE,154,0.0,0.0,66,0.00,CLR,OVC,0.00,WeatherDisplay:10.37,2013-05-10 03:08:00,
2013-05-09 23:13:00,74.0,61.5,30.10,SE,140,0.0,0.0,65,0.00,CLR,OVC,0.00,WeatherDisplay:10.37,2013-05-10 03:13:00,
2013-05-09 23:18:00,72.8,62.0,30.11,SSE,154,0.0,0.0,69,0.00,CLR,OVC,0.00,WeatherDisplay:10.37,2013-05-10 03:18:00,
2013-05-09 23:23:00,74.0,61.5,30.10,SE,140,0.0,0.0,65,0.00,CLR,OVC,0.00,WeatherDisplay:10.37,2013-05-10 03:23:00,
2013-05-09 23:28:00,72.3,62.0,30.11,SSE,154,0.0,0.0,70,0.00,CLR,OVC,0.00,WeatherDisplay:10.37,2013-05-10 03:28:00,
2013-05-09 23:33:00,74.0,61.5,30.10,SE,140,0.0,0.0,65,0.00,CLR,OVC,0.00,WeatherDisplay:10.37,2013-05-10 03:33:00,
2013-05-09 23:38:00,74.0,61.5,30.10,SE,140,0.0,0.0,65,0.00,CLR,OVC,0.00,WeatherDisplay:10.37,2013-05-10 03:38:00,
2013-05-09 23:43:00,71.8,61.9,30.11,SSE,154,0.0,0.0,71,0.00,CLR,OVC,0.00,WeatherDisplay:10.37,2013-05-10 03:43:00,
2013-05-09 23:48:00,71.8,61.5,30.12,SSE,154,0.0,0.0,70,0.00,CLR,OVC,0.00,WeatherDisplay:10.37,2013-05-10 03:48:00,
2013-05-09 23:53:00,71.8,61.9,30.11,SSE,154,0.0,0.0,71,0.00,CLR,OVC,0.00,WeatherDisplay:10.37,2013-05-10 03:53:00,
2013-05-09 23:58:00,71.8,61.9,30.11,SSE,154,0.0,0.0,71,0.00,CLR,OVC,0.00,WeatherDisplay:10.37,2013-05-10 03:58:00,